Location: La Comballaz
(46.3780°N, 7.0817°E)
Time: 20:47:06
(UTC+00:00)

ITUPSAT 1 - Pass Details

Date: 30 November 2022
Orbit: 698 x 711 km, 98.5° (Epoch: 07 February)

Event Time Altitude Azimuth Distance (km) Brightness Sun altitude
Rises 05:45:55 0° 113° (ESE) 3,099 ? -11.3°
Reaches altitude 10° 05:49:05 10° 91° (E) 2,188 ? -10.8°
Maximum altitude 05:51:42 15° 57° (ENE) 1,882 ? -10.3°
Drops below altitude 10° 05:54:19 10° 24° (NNE) 2,199 ? -9.9°
Sets 05:57:31 0° 2° (N) 3,125 ? -9.4°
